(65) Cybele
ephemeris date magn radius delta ra dec elong phase
Today24 Aug 202612.93.126 AU3.819 AU12h45m-02°29'40.9°12.2°
Opposition12 Jun 202710.92.972 AU1.959 AU17h25m-18°00'174.7°1.8°
(65) Cybele - 2026-08-24
astro.vanbuitenen.nl


 
-1 year
-1 month
-1 day
Now
+1 day
+1 month
+1 year

The interactive orbit chart above shows the body's path through the solar system and its position at the given date. Green and blue lines are shown perpendicular to the ecliptic plane: Green if the path is above the ecliptic plane, blue if it is below. (Left-click and drag to rotate the view; Right-click and drag to move the view; Use scroll wheel to zoom in our out.)

The orbital elements of Cybele are:

            e (Eccentricity)                : 0.1278729
            a (Semimajor axis)              : 3.4071491
            i (Inclination)                 : 3.56527
            Ω (Longitude of ascending node) : 155.09993
            ω (Argument of perihelion)      : 104.22709
            M (Mean anomaly)                : 303.90322
            Epoch                           : 2026 Jun 09

            L (Longitude of perihelion)     : 79.35349
            B (Latitude of perihelion)      : 3.45579
            P (Orbital period in years)     : 6.29            
        

The light curve chart below shows the estimated development of the minor planet's magnitude.


The all-sky chart below shows the path of the minor planet over the same period as the light curve. The current position is marked yellow.





The following chart shows the path of the minor planet in the next few days. The field of view is optimized for (~10x50) binoculars and finderscopes.




Ephemerides:
Date       Time       RA (2000)    DEC (2000)    delta   radius  elong  phase   PA    magn
2026-08-24 00:00 UT   12 45 19.5   -02 29 36     3.819    3.126   40.9   12.2   110   12.9 
2026-08-24 04:29 UT   12 45 33.5   -02 31 04     3.820    3.126   40.8   12.2   110   12.9 
2026-08-25 00:00 UT   12 46 34.8   -02 37 30     3.826    3.125   40.3   12.1   110   12.9 
2026-08-26 00:00 UT   12 47 50.5   -02 45 25     3.834    3.124   39.7   11.9   110   12.9 
2026-08-27 00:00 UT   12 49 06.4   -02 53 21     3.842    3.123   39.1   11.8   110   12.9 
2026-08-28 00:00 UT   12 50 22.7   -03 01 19     3.849    3.122   38.5   11.6   110   12.9 
2026-08-29 00:00 UT   12 51 39.2   -03 09 17     3.856    3.121   37.8   11.5   110   12.9 
2026-08-30 00:00 UT   12 52 56.1   -03 17 16     3.864    3.120   37.2   11.3   110   12.9 
2026-08-31 00:00 UT   12 54 13.3   -03 25 17     3.871    3.119   36.6   11.1   110   12.9 
2026-09-01 00:00 UT   12 55 30.8   -03 33 18     3.878    3.118   36.0   11.0   110   12.9 
2026-09-02 00:00 UT   12 56 48.5   -03 41 20     3.885    3.117   35.4   10.8   110   12.9 
2026-09-03 00:00 UT   12 58 06.6   -03 49 22     3.891    3.116   34.8   10.6   109   12.9 
2026-09-04 00:00 UT   12 59 25.0   -03 57 26     3.898    3.115   34.1   10.5   109   12.9 
2026-09-05 00:00 UT   13 00 43.6   -04 05 30     3.904    3.114   33.5   10.3   109   12.9 
2026-09-06 00:00 UT   13 02 02.6   -04 13 35     3.911    3.113   32.9   10.1   109   12.9 
2026-09-07 00:00 UT   13 03 21.8   -04 21 41     3.917    3.112   32.3   10.0   109   12.9 
2026-09-08 00:00 UT   13 04 41.3   -04 29 47     3.923    3.111   31.7    9.8   109   12.9 
2026-09-09 00:00 UT   13 06 01.1   -04 37 54     3.929    3.110   31.1    9.6   109   12.9 
2026-09-10 00:00 UT   13 07 21.2   -04 46 01     3.935    3.109   30.5    9.5   109   12.9 
2026-09-11 00:00 UT   13 08 41.5   -04 54 08     3.941    3.108   29.9    9.3   108   12.9 
2026-09-12 00:00 UT   13 10 02.1   -05 02 16     3.947    3.107   29.2    9.1   108   12.9 
2026-09-13 00:00 UT   13 11 23.0   -05 10 24     3.952    3.106   28.6    8.9   108   12.9 
2026-09-14 00:00 UT   13 12 44.1   -05 18 32     3.957    3.105   28.0    8.8   108   12.9 
2026-09-15 00:00 UT   13 14 05.5   -05 26 41     3.963    3.105   27.4    8.6   108   12.9 
2026-09-16 00:00 UT   13 15 27.2   -05 34 49     3.968    3.104   26.8    8.4   108   12.9 
2026-09-17 00:00 UT   13 16 49.1   -05 42 58     3.973    3.103   26.2    8.2   108   12.8 


    Terminology:
            
    delta:  distance between minor planet and earth in AU
    radius: distance between minor planet and sun in AU
    magn:   magnitude (brightness) estimate    
    ra:     right ascension in hours (24h = 360deg)
    dec:    declination in degrees
    elong:  elongation in degrees (angle sun-earth-minor planet)    
    phase:  phase angle in degrees (angle sun-minor planet-earth)        
    AU:     Astronomical Unit (mean distance between earth and sun: 149597870.7 km
    

Orbital elements provided by the MPC (Minor Planet Center).
Calculations by a modified version of AAPlus, a C# implementation of the AA+ project by PJ Naughter from the algorithms presented in the book "Astronomical Algorithms" by Jean Meeus.
NGC2000 dso catalog and star labels from VizieR as provided by the Strasbourg astronomical Data Center.
Tycho2 catalog from the ESO archive.